| time (UTC) | temp F | wind direction | speed MPH | gust MPH | rain 1hr in | rain 24hr in | rain mn in | humidity % | barometer mb |
| 20260505151552 | 63 | 193 | 19.0 | 0.0 | 0.00 | 0.00 | 0.08 | 68 | 1000.0 |
| 20260505124558 | 63 | 190 | 15.0 | 0.0 | 0.00 | 0.00 | 0.08 | 69 | 998.8 |
| 20260505123058 | 63 | 184 | 15.0 | 0.0 | 0.00 | 0.00 | 0.08 | 69 | 998.9 |
| 20260505121553 | 62 | 182 | 14.0 | 0.0 | 0.00 | 0.00 | 0.08 | 71 | 998.8 |
| 20260505114552 | 62 | 178 | 13.0 | 0.0 | 0.00 | 0.00 | 0.08 | 72 | 998.8 |
| 20260505113111 | 62 | 187 | 14.0 | 0.0 | 0.00 | 0.00 | 0.08 | 73 | 998.7 |
| 20260505111552 | 60 | 178 | 11.0 | 0.0 | 0.00 | 0.00 | 0.08 | 75 | 998.7 |
| 20260505101554 | 58 | 155 | 8.0 | 0.0 | 0.00 | 0.00 | 0.07 | 81 | 998.4 |
| 20260505100054 | 58 | 177 | 9.0 | 0.0 | 0.00 | 0.00 | 0.07 | 81 | 998.5 |
| 20260505094552 | 58 | 154 | 12.0 | 0.0 | 0.00 | 0.00 | 0.07 | 79 | 998.9 |
| 20260505093102 | 58 | 176 | 12.0 | 0.0 | 0.00 | 0.00 | 0.07 | 79 | 998.4 |
| 20260505091552 | 60 | 202 | 14.0 | 0.0 | 0.00 | 0.00 | 0.05 | 73 | 999.1 |
| 20260505090051 | 61 | 200 | 12.0 | 0.0 | 0.00 | 0.00 | 0.04 | 69 | 998.9 |
| 20260505084553 | 60 | 190 | 10.0 | 0.0 | 0.00 | 0.00 | 0.04 | 70 | 999.0 |
| 20260505083055 | 60 | 188 | 10.0 | 0.0 | 0.00 | 0.00 | 0.04 | 69 | 999.2 |
| 20260505081553 | 60 | 184 | 12.0 | 0.0 | 0.00 | 0.00 | 0.04 | 68 | 999.3 |
| 20260505080054 | 60 | 186 | 11.0 | 0.0 | 0.00 | 0.00 | 0.04 | 68 | 999.3 |
| 20260505074550 | 57 | 181 | 10.0 | 0.0 | 0.00 | 0.00 | 0.04 | 70 | 999.4 |
| 20260505073100 | 57 | 213 | 9.0 | 0.0 | 0.00 | 0.00 | 0.04 | 70 | 999.5 |
| 20260505071552 | 56 | 178 | 7.0 | 0.0 | 0.00 | 0.00 | 0.04 | 74 | 999.4 |
| 20260505070052 | 56 | 177 | 7.0 | 0.0 | 0.00 | 0.00 | 0.04 | 77 | 999.4 |
| 20260505064558 | 59 | 218 | 16.0 | 0.0 | 0.00 | 0.00 | 0.02 | 65 | 999.4 |
| 20260505063055 | 60 | 204 | 15.0 | 0.0 | 0.00 | 0.00 | 0.02 | 65 | 1000.0 |
| 20260505061556 | 59 | 192 | 6.0 | 0.0 | 0.00 | 0.00 | 0.00 | 60 | 999.2 |
| 20260505060051 | 59 | 175 | 9.0 | 0.0 | 0.00 | 0.00 | 0.00 | 59 | 999.2 |
| 20260505054548 | 60 | 161 | 12.0 | 0.0 | 0.00 | 0.00 | 0.00 | 57 | 999.3 |
| 20260505053112 | 60 | 158 | 12.0 | 0.0 | 0.00 | 0.00 | 0.00 | 57 | 999.4 |
| 20260505051551 | 59 | 162 | 8.0 | 0.0 | 0.00 | 0.00 | 0.00 | 56 | 999.6 |
| 20260505041547 | 58 | 184 | 2.0 | 0.0 | 0.00 | 0.00 | 0.00 | 57 | 1000.0 |
| 20260505040046 | 58 | 196 | 2.0 | 0.0 | 0.00 | 0.00 | 0.00 | 58 | 1000.1 |
| 20260505034606 | 59 | 197 | 4.0 | 0.0 | 0.00 | 0.00 | 0.00 | 56 | 1000.0 |
| 20260505033054 | 59 | 190 | 4.0 | 0.0 | 0.00 | 0.00 | 0.00 | 56 | 1000.0 |
| 20260505031548 | 59 | 194 | 4.0 | 0.0 | 0.00 | 0.00 | 0.00 | 56 | 1000.2 |
| 20260505030051 | 59 | 207 | 5.0 | 0.0 | 0.00 | 0.00 | 0.00 | 57 | 1000.3 |
| 20260505024548 | 59 | 207 | 5.0 | 0.0 | 0.00 | 0.00 | 0.00 | 56 | 1000.2 |
| 20260505023049 | 59 | 209 | 5.0 | 0.0 | 0.00 | 0.00 | 0.00 | 56 | 1000.6 |
| 20260505021547 | 60 | 198 | 4.0 | 0.0 | 0.00 | 0.00 | 0.00 | 56 | 1000.5 |
| 20260505020047 | 60 | 188 | 3.0 | 0.0 | 0.00 | 0.00 | 0.00 | 55 | 1000.6 |
| 20260505014547 | 60 | 191 | 3.0 | 0.0 | 0.00 | 0.00 | 0.00 | 56 | 1000.7 |
| 20260505013049 | 60 | 190 | 4.0 | 0.0 | 0.00 | 0.00 | 0.00 | 56 | 1000.7 |
| 20260505011606 | 61 | 194 | 4.0 | 0.0 | 0.00 | 0.00 | 0.00 | 56 | 1000.8 |
| 20260505010050 | 61 | 201 | 6.0 | 0.0 | 0.00 | 0.00 | 0.00 | 56 | 1000.8 |
| 20260505004548 | 61 | 200 | 4.0 | 0.0 | 0.00 | 0.00 | 0.00 | 57 | 1000.9 |
| 20260505003054 | 61 | 219 | 4.0 | 0.0 | 0.00 | 0.00 | 0.00 | 56 | 1000.7 |
| 20260505001604 | 62 | 202 | 4.0 | 0.0 | 0.00 | 0.00 | 0.00 | 56 | 1000.6 |
| 20260505000105 | 62 | 190 | 5.0 | 0.0 | 0.00 | 0.00 | 0.00 | 55 | 1000.5 |
| 20260504234550 | 63 | 207 | 7.0 | 0.0 | 0.00 | 0.00 | 0.00 | 55 | 1000.4 |
| 20260504233103 | 63 | 200 | 7.0 | 0.0 | 0.00 | 0.00 | 0.00 | 55 | 1000.4 |
| 20260504231548 | 63 | 220 | 7.0 | 0.0 | 0.00 | 0.00 | 0.00 | 55 | 1000.4 |
| 20260504230048 | 63 | 191 | 8.0 | 0.0 | 0.00 | 0.00 | 0.00 | 55 | 1000.5 |
| 20260504224547 | 63 | 191 | 9.0 | 0.0 | 0.00 | 0.00 | 0.00 | 55 | 1000.5 |
| 20260504223049 | 63 | 196 | 9.0 | 0.0 | 0.00 | 0.00 | 0.00 | 54 | 1000.7 |
| 20260504221548 | 64 | 184 | 9.0 | 0.0 | 0.00 | 0.00 | 0.00 | 53 | 1000.8 |
| 20260504220047 | 64 | 225 | 9.0 | 0.0 | 0.00 | 0.00 | 0.00 | 54 | 1000.9 |
| 20260504214543 | 63 | 196 | 10.0 | 0.0 | 0.00 | 0.00 | 0.00 | 54 | 1001.0 |
| 20260504213048 | 63 | 218 | 10.0 | 0.0 | 0.00 | 0.00 | 0.00 | 54 | 1001.1 |
| 20260504211541 | 63 | 228 | 10.0 | 0.0 | 0.00 | 0.00 | 0.00 | 56 | 1001.1 |
| 20260504210039 | 62 | 229 | 10.0 | 0.0 | 0.00 | 0.00 | 0.00 | 56 | 1001.3 |
| 20260504204536 | 62 | 225 | 11.0 | 0.0 | 0.00 | 0.00 | 0.00 | 56 | 1001.5 |
| 20260504203037 | 62 | 242 | 10.0 | 0.0 | 0.00 | 0.00 | 0.00 | 56 | 1001.6 |
| 20260504201534 | 61 | 219 | 11.0 | 0.0 | 0.00 | 0.00 | 0.00 | 56 | 1001.7 |
| 20260504200033 | 61 | 228 | 12.0 | 0.0 | 0.00 | 0.00 | 0.00 | 55 | 1001.9 |
| 20260504194533 | 61 | 249 | 12.0 | 0.0 | 0.00 | 0.00 | 0.00 | 56 | 1002.1 |
| 20260504193034 | 61 | 241 | 12.0 | 0.0 | 0.00 | 0.00 | 0.00 | 56 | 1002.3 |
| 20260504191530 | 60 | 217 | 12.0 | 0.0 | 0.00 | 0.00 | 0.00 | 59 | 1002.3 |
| 20260504190028 | 59 | 234 | 13.0 | 0.0 | 0.00 | 0.00 | 0.00 | 59 | 1002.5 |
| 20260504184527 | 60 | 224 | 12.0 | 0.0 | 0.00 | 0.00 | 0.00 | 58 | 1002.6 |
| 20260504183026 | 60 | 228 | 12.0 | 0.0 | 0.00 | 0.00 | 0.00 | 59 | 1002.8 |
| 20260504181522 | 59 | 205 | 13.0 | 0.0 | 0.00 | 0.00 | 0.00 | 58 | 1002.8 |
| 20260504180020 | 59 | 217 | 12.0 | 0.0 | 0.00 | 0.00 | 0.00 | 59 | 1002.9 |
| 20260504174516 | 57 | 227 | 13.0 | 0.0 | 0.00 | 0.00 | 0.00 | 60 | 1003.3 |
| 20260504173022 | 57 | 212 | 14.0 | 0.0 | 0.00 | 0.00 | 0.00 | 60 | 1003.4 |
| 20260504171523 | 57 | 202 | 14.0 | 0.0 | 0.00 | 0.00 | 0.00 | 60 | 1003.6 |